K3JAR-3 Weather Reports


Display with metric or nautical units.
time (UTC)temp
F
wind
direction
speed
MPH
gust
MPH
rain 1hr
in
rain 24hr
in
rain mn
in
humidity
%
barometer
mb
20260904060025 79 160 4.0 7.0 0.00 0.00 0.00 87 1015.3
20260904055033 79 161 4.0 6.0 0.00 0.00 0.00 86 1015.3
20260904054031 79 153 5.0 6.0 0.00 0.00 0.00 86 1015.3
20260904053016 79 165 5.0 6.0 0.00 0.00 0.00 85 1015.3
20260904052020 79 166 5.0 8.0 0.00 0.00 0.00 85 1015.2
20260904051023 79 146 6.0 9.0 0.00 0.00 0.00 84 1015.1
20260904050025 79 134 5.0 7.0 0.00 0.00 0.00 83 1015.3
20260904045028 79 159 5.0 6.0 0.00 0.00 0.00 82 1015.3
20260904044031 79 153 4.0 5.0 0.00 0.00 0.00 82 1015.2
20260904043017 79 161 4.0 6.0 0.00 0.00 0.00 81 1015.3
20260904042020 79 138 4.0 6.0 0.00 0.00 0.00 79 1015.3
20260904041023 79 159 2.0 6.0 0.00 0.00 0.00 76 1015.4
20260904040040 79 137 3.0 5.0 0.00 0.00 0.00 76 1015.4
20260904035018 80 126 3.0 5.0 0.00 0.00 0.00 76 1015.3
20260904034019 80 133 3.0 5.0 0.00 0.00 0.00 76 1015.3
20260904033018 80 105 3.0 6.0 0.00 0.00 0.00 76 1015.2
20260904032021 80 125 2.0 7.0 0.00 0.00 0.00 76 1015.1
20260904031025 81 138 4.0 5.0 0.00 0.00 0.00 76 1015.2
20260904030028 81 150 3.0 5.0 0.00 0.00 0.00 77 1015.0
20260904025032 81 144 2.0 3.0 0.00 0.00 0.00 77 1014.8
20260904024017 81 120 3.0 5.0 0.00 0.00 0.00 77 1014.6
20260904023020 81 148 3.0 5.0 0.00 0.00 0.00 77 1014.6
20260904022023 82 150 5.0 9.0 0.00 0.00 0.00 76 1014.5
20260904021027 82 143 4.0 5.0 0.00 0.00 0.00 76 1014.2
20260904020050 82 143 3.0 6.0 0.00 0.00 0.00 75 1014.0
20260904015015 83 137 4.0 6.0 0.00 0.00 0.00 75 1013.8
20260904014039 83 145 5.0 8.0 0.00 0.00 0.00 75 1013.6
20260904013022 83 164 5.0 7.0 0.00 0.00 0.00 74 1013.6
20260904012025 84 142 5.0 7.0 0.00 0.00 0.00 72 1013.5
20260904011028 85 150 5.0 10.0 0.00 0.00 0.00 66 1013.4
20260904010032 85 134 5.0 8.0 0.00 0.00 0.00 64 1013.5
20260904005037 86 151 7.0 11.0 0.00 0.00 0.00 61 1013.4
20260904004046 87 161 4.0 6.0 0.00 0.00 0.00 60 1013.4
20260904003024 87 153 6.0 9.0 0.00 0.00 0.00 61 1013.4
20260904002021 88 153 6.0 9.0 0.00 0.00 0.00 62 1013.4
20260904001019 88 158 6.0 10.0 0.00 0.00 0.00 62 1013.3
20260904000020 88 149 6.0 10.0 0.00 0.00 0.00 62 1013.3
20260903235019 89 153 7.0 9.0 0.00 0.00 0.00 61 1013.2
20260903234022 89 145 6.0 8.0 0.00 0.00 0.00 61 1013.1
20260903233025 90 156 5.0 8.0 0.00 0.00 0.00 61 1013.0
20260903232028 90 158 6.0 9.0 0.00 0.00 0.00 60 1012.9
20260903231032 90 145 6.0 8.0 0.00 0.00 0.00 61 1013.0
20260903230043 91 133 7.0 9.0 0.00 0.00 0.00 61 1012.8
20260903225040 90 161 7.0 10.0 0.00 0.00 0.00 62 1012.9
20260903224023 91 157 7.0 10.0 0.00 0.00 0.00 60 1013.0
20260903223127 92 118 6.0 10.0 0.00 0.00 0.00 58 1013.0
20260903222030 92 108 7.0 10.0 0.00 0.00 0.00 59 1013.0
20260903221015 93 166 7.0 9.0 0.00 0.00 0.00 59 1012.9
20260903220019 93 129 5.0 8.0 0.00 0.00 0.00 59 1012.9
20260903215022 91 165 8.0 11.0 0.00 0.00 0.00 60 1013.0
20260903214025 93 125 7.0 13.0 0.00 0.00 0.00 58 1013.0
20260903213029 92 146 5.0 8.0 0.00 0.00 0.00 60 1013.1
20260903212112 91 167 6.0 10.0 0.00 0.00 0.00 61 1013.2
20260903211017 90 197 7.0 10.0 0.00 0.00 0.00 62 1013.3
20260903210020 91 175 6.0 11.0 0.00 0.00 0.00 62 1013.6
20260903205044 92 179 7.0 11.0 0.00 0.00 0.00 61 1013.8
20260903204106 91 160 8.0 10.0 0.00 0.00 0.00 61 1013.8
20260903203023 90 179 7.0 9.0 0.00 0.00 0.00 64 1013.8
20260903202046 89 168 7.0 11.0 0.00 0.00 0.00 66 1013.8
20260903201030 90 169 6.0 10.0 0.00 0.00 0.00 64 1013.9
20260903200015 90 177 8.0 13.0 0.00 0.00 0.00 65 1013.8
20260903195023 88 156 10.0 16.0 0.00 0.00 0.00 69 1014.1
20260903194021 88 173 10.0 13.0 0.00 0.00 0.00 68 1014.2
20260903193024 89 162 8.0 13.0 0.00 0.00 0.00 68 1014.3
20260903192027 89 183 9.0 13.0 0.00 0.00 0.00 67 1014.3
20260903191044 88 154 8.0 10.0 0.00 0.00 0.00 69 1014.6
20260903190016 87 172 10.0 13.0 0.00 0.00 0.00 71 1014.8
20260903185019 86 173 11.0 16.0 0.00 0.00 0.00 73 1015.0
20260903184021 86 162 9.0 12.0 0.00 0.00 0.00 73 1015.2
20260903183026 86 155 10.0 15.0 0.00 0.00 0.00 73 1015.3
20260903182030 85 142 11.0 14.0 0.00 0.00 0.00 75 1015.3
20260903181032 85 158 10.0 14.0 0.00 0.00 0.00 76 1015.4
20260903180018 85 164 10.0 14.0 0.00 0.00 0.00 76 1015.4
20260903175021 85 162 10.0 15.0 0.00 0.00 0.00 76 1015.6
20260903174024 85 150 10.0 15.0 0.00 0.00 0.00 76 1015.7
20260903173027 86 160 9.0 14.0 0.00 0.00 0.00 74 1015.7
20260903172031 86 164 9.0 14.0 0.00 0.00 0.00 75 1015.7
20260903171016 85 149 9.0 13.0 0.00 0.00 0.00 76 1015.7
20260903170024 86 160 8.0 11.0 0.00 0.00 0.00 75 1015.7
20260903165022 86 148 8.0 10.0 0.00 0.00 0.00 75 1015.7
20260903164020 86 163 8.0 12.0 0.00 0.00 0.00 75 1015.8
20260903163023 85 160 10.0 15.0 0.00 0.00 0.00 78 1015.8
20260903162051 85 160 8.0 10.0 0.00 0.00 0.00 77 1015.8
20260903161030 85 173 8.0 12.0 0.00 0.00 0.00 77 1015.8
20260903160015 85 176 7.0 11.0 0.00 0.00 0.00 78 1015.8
20260903155018 84 151 6.0 9.0 0.00 0.00 0.00 78 1015.7
20260903154021 84 168 6.0 8.0 0.00 0.00 0.00 80 1015.7
20260903153025 83 171 6.0 8.0 0.00 0.00 0.00 82 1015.7
20260903152022 82 175 5.0 7.0 0.00 0.00 0.00 83 1015.6
20260903151059 82 169 6.0 9.0 0.00 0.00 0.00 85 1015.6
20260903150017 81 162 4.0 7.0 0.00 0.00 0.00 85 1015.8
20260903145020 81 116 3.0 5.0 0.00 0.00 0.00 85 1015.8
20260903144023 81 147 3.0 5.0 0.00 0.00 0.00 85 1015.8
20260903143026 81 146 3.0 6.0 0.00 0.00 0.00 85 1015.7
20260903142110 80 146 4.0 6.0 0.00 0.00 0.00 85 1015.6
20260903141015 80 156 5.0 6.0 0.00 0.00 0.00 85 1015.6
20260903140018 81 153 5.0 8.0 0.00 0.00 0.00 85 1015.6
20260903135021 81 151 3.0 5.0 0.00 0.00 0.00 85 1015.6
20260903134030 79 106 3.0 6.0 0.00 0.00 0.00 86 1015.6
20260903133028 78 132 2.0 4.0 0.00 0.00 0.00 88 1015.5
20260903132031 77 136 2.0 4.0 0.00 0.00 0.00 90 1015.5
20260903131016 77 153 3.0 7.0 0.00 0.00 0.00 90 1015.6
20260903130020 77 114 3.0 4.0 0.00 0.00 0.00 91 1015.6
20260903125043 76 134 2.0 4.0 0.00 0.00 0.00 92 1015.4
20260903124026 76 137 1.0 2.0 0.00 0.00 0.00 92 1015.2
20260903123030 76 128 2.0 5.0 0.00 0.00 0.00 92 1015.2
20260903122015 76 147 2.0 3.0 0.00 0.00 0.00 92 1015.2
20260903121018 76 141 1.0 3.0 0.00 0.00 0.00 92 1015.1
20260903120021 76 144 1.0 2.0 0.00 0.00 0.00 92 1015.1
20260903115045 76 135 0.0 1.0 0.00 0.00 0.00 91 1015.1
20260903114022 76 0 0.0 1.0 0.00 0.00 0.00 91 1015.0
20260903113019 76 120 1.0 3.0 0.00 0.00 0.00 90 1015.1
20260903112016 76 113 2.0 4.0 0.00 0.00 0.00 90 1015.1
20260903111019 76 134 2.0 3.0 0.00 0.00 0.00 89 1015.0
20260903110022 76 139 1.0 2.0 0.00 0.00 0.00 89 1014.9
20260903105025 76 149 0.0 1.0 0.00 0.00 0.00 89 1014.8
20260903104029 76 151 1.0 2.0 0.00 0.00 0.00 89 1014.7
20260903103033 76 131 1.0 2.0 0.00 0.00 0.00 89 1014.7
20260903102018 76 122 1.0 3.0 0.00 0.00 0.00 89 1014.7
20260903101021 76 117 1.0 5.0 0.00 0.00 0.00 90 1014.8
20260903100024 76 103 3.0 4.0 0.00 0.00 0.00 90 1014.8
20260903095028 76 97 1.0 2.0 0.00 0.00 0.00 89 1014.8
20260903094037 76 87 2.0 3.0 0.00 0.00 0.00 89 1014.9
20260903093056 76 100 3.0 3.0 0.00 0.00 0.00 88 1014.9
20260903092019 76 97 2.0 3.0 0.00 0.00 0.00 87 1014.9
20260903091024 76 88 2.0 2.0 0.00 0.00 0.00 87 1014.7
20260903090106 76 76 1.0 2.0 0.00 0.00 0.00 87 1014.7
20260903085030 76 74 2.0 2.0 0.00 0.00 0.00 88 1014.7
20260903084015 76 36 2.0 3.0 0.00 0.00 0.00 88 1014.6
20260903083018 76 0.0 0.0 0.00 0.00 0.00 86 1014.7
20260903082021 76 157 0.0 1.0 0.00 0.00 0.00 86 1014.8
20260903081024 77 163 0.0 2.0 0.00 0.00 0.00 84 1014.8
20260903080022 77 0.0 0.0 0.00 0.00 0.00 84 1014.7
20260903075024 77 0.0 0.0 0.00 0.00 0.00 84 1014.7
20260903074016 77 219 0.0 2.0 0.00 0.00 0.00 83 1014.9
20260903073021 78 172 2.0 3.0 0.00 0.00 0.00 82 1015.0
20260903072024 78 154 2.0 3.0 0.00 0.00 0.00 81 1015.1
20260903071026 78 176 3.0 4.0 0.00 0.00 0.00 80 1015.0
20260903070029 78 162 2.0 2.0 0.00 0.00 0.00 80 1014.8
20260903065015 78 174 1.0 2.0 0.00 0.00 0.00 80 1014.9
20260903064019 78 177 2.0 2.0 0.00 0.00 0.00 80 1015.1
20260903063021 78 170 1.0 2.0 0.00 0.00 0.00 79 1015.1
20260903062044 79 155 2.0 2.0 0.00 0.00 0.00 78 1015.1
20260903061048 79 154 3.0 4.0 0.00 0.00 0.00 77 1015.3